Ketchikan, AK

4:20 PM AKST on February 20, 2019 (GMT -0900)
Ketchikan International

Weather History for PAKT - January, 2019

Change the Weather History Date:

Saturday, January 26, 2019

  Actual Average Record
Temperature  
Mean Temperature 44 °F -  
Max Temperature 48 °F 39 °F 53 °F (1983)
Min Temperature 37 °F 28 °F 7 °F (1972)
Degree Days  
Heating Degree Days 22    
Moisture  
Dew Point 43 °F    
Average Humidity 91    
Maximum Humidity 100    
Minimum Humidity 71    
Precipitation  
Precipitation 0.31 in - - ()
Sea Level Pressure  
Sea Level Pressure 30.24 in    
Wind  
Wind Speed 19 mph (SE)    
Max Wind Speed 25 mph    
Max Gust Speed 37 mph    
Visibility 5 miles    
Events Rain    
Averages and records for this station are not official NWS values.
T = Trace of Precipitation, MM = Missing Value Source: NWS Daily Summary

Daily Weather History Graph

Daily Weather History Graph

Search for Another Location

Airport or City:

Astronomy

Jan. 26, 2019 Rise Set
Actual Time 7:49 AM AKST 4:10 PM AKST
Civil Twilight 7:07 AM AKST 4:51 PM AKST
Nautical Twilight 6:23 AM AKST 5:36 PM AKST
Astronomical Twilight 5:39 AM AKST 6:19 PM AKST
Moon No Moon Rise 10:32 AM AKST (1/26)
Length of Visible Light 9h 43m
Length of Day
8h 20m
Waning Gibbous, 61% of the Moon is Illuminated
Jan 26
Waning Gibbous
Jan 27
Last Quarter
Feb 4
New
Feb 12
First Quarter
Feb 19
Full

Hourly Weather History & Observations

Time (AKST) Temp. Windchill Dew Point Humidity Pressure Visibility Wind Dir Wind Speed Gust Speed Precip Events Conditions
12:42 AM 46.9 °F - 46.0 °F 97% 30.22 in 2.0 mi SE 23.0 mph 35.7 mph 0.05 in Rain Light Rain
12:53 AM 46.9 °F - 46.0 °F 97% 30.22 in 2.0 mi SE 23.0 mph 31.1 mph 0.05 in Rain Light Rain
1:10 AM 46.9 °F - 46.0 °F 97% 30.22 in 2.0 mi SE 21.9 mph 29.9 mph 0.01 in Rain Light Rain
1:27 AM 46.9 °F - 46.0 °F 97% 30.23 in 1.8 mi SE 23.0 mph 31.1 mph 0.02 in Rain Light Rain
1:43 AM 46.9 °F - 45.0 °F 93% 30.23 in 2.0 mi SE 24.2 mph 32.2 mph 0.02 in Rain Light Rain
1:53 AM 46.9 °F - 45.0 °F 93% 30.24 in 1.8 mi SE 24.2 mph 32.2 mph 0.03 in Rain Light Rain
2:04 AM 46.9 °F - 45.0 °F 93% 30.23 in 1.8 mi SE 23.0 mph 29.9 mph 0.01 in Rain Light Rain
2:20 AM 46.9 °F - 46.0 °F 97% 30.23 in 1.8 mi SE 21.9 mph 31.1 mph 0.02 in Rain Light Rain
2:53 AM 46.9 °F - 46.0 °F 97% 30.23 in 1.8 mi SE 25.3 mph 35.7 mph 0.05 in Rain Light Rain
3:53 AM 46.9 °F - 46.0 °F 97% 30.21 in 1.8 mi SE 21.9 mph 33.4 mph 0.08 in Rain Light Rain
4:40 AM 46.9 °F - 46.0 °F 97% 30.21 in 2.5 mi SE 24.2 mph 34.5 mph 0.05 in Rain Light Rain
4:53 AM 46.9 °F - 46.0 °F 97% 30.20 in 2.5 mi SE 21.9 mph 35.7 mph 0.06 in Rain Light Rain
5:20 AM 46.9 °F - 46.0 °F 97% 30.19 in 1.8 mi SE 21.9 mph 33.4 mph 0.01 in Rain Light Rain
5:45 AM 46.9 °F - 45.0 °F 93% 30.19 in 2.0 mi SE 20.7 mph 31.1 mph 0.03 in Rain Light Rain
5:53 AM 46.9 °F - 46.0 °F 97% 30.20 in 2.5 mi SE 21.9 mph 28.8 mph 0.04 in Rain Light Rain
6:01 AM 46.9 °F - 45.0 °F 93% 30.19 in 2.5 mi SE 24.2 mph 32.2 mph 0.00 in Rain Light Rain
6:10 AM 46.4 °F 38.5 °F 46.4 °F 100% 30.18 in 3.0 mi SE 21.9 mph 32.2 mph N/A Rain Light Rain
6:53 AM 46.4 °F 38.1 °F 44.6 °F 93% 30.18 in 3.0 mi SE 24.2 mph 36.8 mph N/A Rain Light Rain
7:53 AM 46.4 °F 38.1 °F 44.6 °F 93% 30.15 in 3.0 mi SE 24.2 mph 33.4 mph N/A Rain Light Rain
8:53 AM 46.4 °F 39.0 °F 44.6 °F 93% 30.16 in 3.0 mi SE 19.6 mph 26.5 mph N/A Rain Rain
9:53 AM 46.4 °F 39.5 °F 44.6 °F 93% 30.17 in 3.0 mi SE 17.3 mph - N/A Rain Rain
10:53 AM 46.4 °F 40.7 °F 44.6 °F 93% 30.18 in 4.0 mi SE 12.7 mph - N/A Rain Rain
11:53 AM 46.4 °F 39.8 °F 44.6 °F 93% 30.16 in 5.0 mi ESE 16.1 mph - N/A Rain Light Rain
12:53 PM 48.2 °F - 44.6 °F 87% 30.17 in 10.0 mi SE 10.4 mph - N/A Rain Light Rain
1:53 PM 46.4 °F 43.5 °F 44.6 °F 93% 30.19 in 3.0 mi North 5.8 mph - N/A Rain Light Rain
2:53 PM 46.4 °F 41.5 °F 42.8 °F 87% 30.22 in 10.0 mi NW 10.4 mph - N/A   Mostly Cloudy
3:53 PM 44.6 °F 39.7 °F 41.0 °F 87% 30.25 in 10.0 mi NW 9.2 mph - N/A   Mostly Cloudy
4:53 PM 44.6 °F 40.2 °F 39.2 °F 81% 30.28 in 10.0 mi NW 8.1 mph - N/A   Mostly Cloudy
5:53 PM 45.0 °F 39.3 °F 37.0 °F 74% 30.31 in 10.0 mi NW 11.5 mph 20.7 mph N/A   Clear
6:53 PM 44.6 °F 39.7 °F 35.6 °F 71% 30.34 in 10.0 mi WNW 9.2 mph - N/A   Mostly Cloudy
7:53 PM 44.6 °F 40.7 °F 35.6 °F 71% 30.38 in 10.0 mi NW 6.9 mph - N/A   Mostly Cloudy
8:53 PM 39.2 °F - 37.4 °F 93% 30.40 in 10.0 mi Calm Calm - N/A   Mostly Cloudy
9:53 PM 39.9 °F 37.8 °F 36.0 °F 86% 30.43 in 10.0 mi Variable 3.5 mph - N/A   Clear
10:53 PM 39.9 °F 36.7 °F 36.0 °F 86% 30.45 in 10.0 mi Variable 4.6 mph - N/A   Scattered Clouds
11:53 PM 37.9 °F 34.4 °F 36.0 °F 93% 30.48 in 10.0 mi WNW 4.6 mph - N/A   Clear